Location: Newark
(50.8964°N, 1.4048°W)
Time: 22:08:51
(UTC+00:00)

N. Korean satellite - Pass Details

Date: 29 January 2020
Orbit: 456 x 505 km, 97.2° (Epoch: 19 February)

Event Time Altitude Azimuth Distance (km) Brightness Sun altitude
Rises 17:46:39 0° 197° (SSW) 2,464 10.7 -8.9°
Reaches altitude 10° 17:48:59 10° 214° (SSW) 1,599 10.0 -9.3°
Maximum altitude 17:51:43 22° 267° (W) 1,059 9.4 -9.7°
Drops below altitude 10° 17:54:29 10° 320° (NW) 1,621 9.5 -10.1°
Sets 17:56:53 0° 336° (NNW) 2,510 10.3 -10.5°
